CTV32 WIHH-WIBB

Flight info

Callsign CTV32
Flight time 1h 21m
Altitude 36000
Route DOLTA A585 JATAM
Aircraft A320/M-SDE3FGHIRWY/LB1

Departure

Time 2026-05-04 08:20
Airport Halim Perdanakusuma International Airport (WIHH)

Arrival

Time 2026-05-04 09:41
Airport Sultan Syarif Kasim II International Airport / Roesmin Nurjadin AFB (WIBB)
Time Latitude Longitude Altitude Speed Heading
2026-05-04 08:02 -6.26613 106.88603 0 ft 0 kts 336°
2026-05-04 08:11 -6.26613 106.88604 0 ft 2 kts 336°
2026-05-04 08:11 -6.26650 106.88637 75 ft 4 kts 279°
2026-05-04 08:11 -6.26648 106.88662 94 ft 2 kts 245°
2026-05-04 08:12 -6.26647 106.88664 94 ft 0 kts 245°
2026-05-04 08:16 -6.26876 106.88530 93 ft 10 kts 164°
2026-05-04 08:16 -6.26931 106.88515 95 ft 8 kts 225°
2026-05-04 08:16 -6.26956 106.88472 93 ft 7 kts 243°
2026-05-04 08:17 -6.26986 106.88407 92 ft 13 kts 245°
2026-05-04 08:17 -6.27030 106.88313 93 ft 15 kts 245°
2026-05-04 08:17 -6.27076 106.88212 94 ft 17 kts 245°
2026-05-04 08:17 -6.27130 106.88094 94 ft 19 kts 245°
2026-05-04 08:19 -6.26843 106.88714 96 ft 136 kts 65°
2026-05-04 08:19 -6.26361 106.89757 240 ft 182 kts 63°
2026-05-04 08:20 -6.25850 106.90926 1218 ft 183 kts 66°
2026-05-04 08:20 -6.25727 106.92242 1880 ft 204 kts 105°
2026-05-04 08:20 -6.26423 106.93562 2283 ft 226 kts 120°
2026-05-04 08:20 -6.27291 106.94978 2578 ft 250 kts 120°
2026-05-04 08:21 -6.28244 106.96531 3004 ft 270 kts 124°
2026-05-04 08:21 -6.29613 106.97841 3717 ft 277 kts 151°
2026-05-04 08:21 -6.31446 106.98424 4509 ft 279 kts 178°
2026-05-04 08:21 -6.33343 106.98124 5322 ft 278 kts 205°
2026-05-04 08:22 -6.34903 106.97008 6134 ft 277 kts 231°
2026-05-04 08:22 -6.35803 106.95312 6922 ft 278 kts 257°
2026-05-04 08:24 -6.32361 106.82219 10754 ft 344 kts 336°
2026-05-04 08:24 -6.30260 106.81217 11128 ft 336 kts 331°
2026-05-04 08:24 -6.28269 106.79938 11648 ft 336 kts 324°
2026-05-04 08:24 -6.26422 106.78532 12360 ft 338 kts 322°
2026-05-04 08:25 -6.24557 106.77023 13047 ft 341 kts 321°
2026-05-04 08:25 -6.22736 106.75541 13686 ft 343 kts 322°
2026-05-04 08:25 -6.20862 106.74045 14336 ft 345 kts 323°
2026-05-04 08:25 -6.18964 106.72563 14957 ft 347 kts 323°
2026-05-04 08:26 -6.17032 106.71084 15535 ft 351 kts 324°
2026-05-04 08:27 -6.02915 106.60471 19194 ft 373 kts 324°
2026-05-04 08:28 -6.00833 106.58899 19677 ft 376 kts 324°
2026-05-04 08:28 -5.98732 106.57311 20155 ft 379 kts 324°
2026-05-04 08:28 -5.96619 106.55712 20622 ft 382 kts 324°
2026-05-04 08:28 -5.94487 106.54101 21092 ft 385 kts 324°
2026-05-04 08:29 -5.92343 106.52482 21537 ft 388 kts 324°
2026-05-04 08:29 -5.90180 106.50849 21998 ft 390 kts 324°
2026-05-04 08:29 -5.88002 106.49208 22435 ft 393 kts 324°
2026-05-04 08:31 -5.71869 106.37065 24630 ft 428 kts 324°
2026-05-04 08:33 -5.54862 106.24262 26821 ft 446 kts 324°
2026-05-04 08:33 -5.52376 106.22390 27081 ft 449 kts 324°
2026-05-04 08:35 -5.34643 106.09060 28961 ft 461 kts 324°
2026-05-04 08:35 -5.32075 106.07127 29203 ft 462 kts 324°
2026-05-04 08:35 -5.29500 106.05189 29440 ft 464 kts 324°
2026-05-04 08:35 -5.26913 106.03242 29672 ft 465 kts 324°
2026-05-04 08:37 -5.11106 105.91638 30886 ft 472 kts 332°
2026-05-04 08:37 -5.08251 105.90015 31133 ft 472 kts 332°
2026-05-04 08:37 -5.05395 105.88394 31400 ft 471 kts 332°
2026-05-04 08:38 -5.02540 105.86773 31659 ft 471 kts 332°
2026-05-04 08:38 -4.99693 105.85152 31913 ft 470 kts 331°
2026-05-04 08:38 -4.96856 105.83533 32184 ft 470 kts 331°
2026-05-04 08:40 -4.78027 105.72806 33896 ft 465 kts 331°
2026-05-04 08:40 -4.75215 105.71205 34136 ft 464 kts 331°
2026-05-04 08:40 -4.72411 105.69608 34364 ft 464 kts 331°
2026-05-04 08:41 -4.68659 105.67471 34641 ft 463 kts 331°
2026-05-04 08:41 -4.66805 105.66416 34770 ft 463 kts 331°
2026-05-04 08:41 -4.64004 105.64820 34961 ft 463 kts 331°
2026-05-04 08:41 -4.61202 105.63228 35147 ft 462 kts 331°
2026-05-04 08:42 -4.58408 105.61641 35324 ft 462 kts 331°
2026-05-04 08:42 -4.55610 105.60048 35493 ft 462 kts 331°
2026-05-04 08:42 -4.52814 105.58456 35670 ft 462 kts 331°
2026-05-04 08:42 -4.50022 105.56868 35808 ft 462 kts 331°
2026-05-04 08:43 -4.47233 105.55285 35838 ft 460 kts 331°
2026-05-04 08:43 -4.41677 105.52125 35835 ft 459 kts 331°
2026-05-04 08:44 -4.36131 105.48968 35839 ft 458 kts 331°
2026-05-04 08:46 -4.13936 105.36357 35840 ft 459 kts 331°
2026-05-04 08:46 -4.08386 105.33209 35841 ft 459 kts 331°
2026-05-04 08:47 -4.02777 105.30024 35838 ft 467 kts 331°
2026-05-04 08:47 -3.97087 105.26793 35840 ft 473 kts 331°
2026-05-04 08:48 -3.91354 105.23537 35863 ft 474 kts 330°
2026-05-04 08:48 -3.85605 105.20279 35865 ft 475 kts 330°
2026-05-04 08:49 -3.79842 105.17043 35855 ft 475 kts 330°
2026-05-04 08:50 -3.59666 105.05693 35873 ft 475 kts 330°
2026-05-04 08:51 -3.53905 105.02451 35880 ft 475 kts 330°
2026-05-04 08:51 -3.48146 104.99215 35880 ft 475 kts 330°
2026-05-04 08:52 -3.42390 104.95976 35872 ft 475 kts 330°
2026-05-04 08:52 -3.36674 104.92756 35864 ft 475 kts 330°
2026-05-04 08:54 -3.13572 104.79774 35864 ft 477 kts 330°
2026-05-04 08:55 -3.07789 104.76521 35862 ft 477 kts 330°
2026-05-04 08:55 -3.02003 104.73264 35863 ft 477 kts 330°
2026-05-04 08:57 -2.82839 104.60418 35868 ft 476 kts 315°
2026-05-04 09:01 -2.49802 104.28216 35867 ft 473 kts 316°
2026-05-04 09:01 -2.45092 104.23624 35858 ft 473 kts 316°
2026-05-04 09:02 -2.40379 104.19036 35865 ft 473 kts 316°
2026-05-04 09:02 -2.35661 104.14447 35858 ft 473 kts 316°
2026-05-04 09:03 -2.30950 104.09860 35861 ft 473 kts 316°
2026-05-04 09:03 -2.26236 104.05260 35859 ft 473 kts 316°
2026-05-04 09:04 -2.21518 104.00664 35866 ft 473 kts 316°
2026-05-04 09:04 -2.16802 103.96072 35866 ft 473 kts 316°
2026-05-04 09:05 -2.12086 103.91480 35861 ft 473 kts 316°
2026-05-04 09:05 -2.07369 103.86883 35859 ft 473 kts 316°
2026-05-04 09:06 -2.02656 103.82291 35864 ft 473 kts 316°
2026-05-04 09:08 -1.83776 103.63915 35875 ft 473 kts 316°
2026-05-04 09:08 -1.79054 103.59329 35877 ft 473 kts 316°
2026-05-04 09:09 -1.74335 103.54738 35872 ft 473 kts 316°
2026-05-04 09:09 -1.69627 103.50150 35865 ft 473 kts 316°
2026-05-04 09:10 -1.64913 103.45560 35862 ft 473 kts 316°
2026-05-04 09:10 -1.60196 103.40971 35870 ft 473 kts 316°
2026-05-04 09:11 -1.55480 103.36383 35870 ft 473 kts 316°
2026-05-04 09:11 -1.50764 103.31798 35865 ft 473 kts 316°
2026-05-04 09:12 -1.46046 103.27209 35869 ft 473 kts 316°
2026-05-04 09:14 -1.27175 103.08853 35880 ft 473 kts 316°
2026-05-04 09:14 -1.22453 103.04268 35880 ft 473 kts 316°
2026-05-04 09:15 -1.17730 102.99675 35875 ft 473 kts 316°
2026-05-04 09:15 -1.13012 102.95083 35863 ft 473 kts 316°
2026-05-04 09:17 -0.91714 102.74396 33656 ft 479 kts 316°
2026-05-04 09:18 -0.89322 102.72073 32933 ft 481 kts 315°
2026-05-04 09:18 -0.86920 102.69740 32209 ft 482 kts 315°
2026-05-04 09:18 -0.84515 102.67404 31482 ft 482 kts 315°
2026-05-04 09:18 -0.82112 102.65068 30758 ft 483 kts 315°
2026-05-04 09:19 -0.79710 102.62733 30033 ft 479 kts 316°
2026-05-04 09:19 -0.77333 102.60427 29399 ft 474 kts 316°
2026-05-04 09:19 -0.74977 102.58144 28779 ft 469 kts 316°
2026-05-04 09:19 -0.72654 102.55892 28282 ft 464 kts 316°
2026-05-04 09:20 -0.70351 102.53657 27771 ft 460 kts 316°
2026-05-04 09:20 -0.68063 102.51436 27273 ft 457 kts 316°
2026-05-04 09:20 -0.65790 102.49228 26772 ft 454 kts 316°
2026-05-04 09:20 -0.63532 102.47034 26273 ft 452 kts 316°
2026-05-04 09:21 -0.61286 102.44853 25771 ft 449 kts 316°
2026-05-04 09:21 -0.59054 102.42687 25270 ft 446 kts 316°
2026-05-04 09:21 -0.56867 102.40563 24777 ft 443 kts 316°
2026-05-04 09:21 -0.54635 102.38400 24270 ft 440 kts 316°
2026-05-04 09:22 -0.52446 102.36278 23770 ft 438 kts 316°
2026-05-04 09:22 -0.50267 102.34165 23264 ft 435 kts 316°
2026-05-04 09:22 -0.48134 102.32096 22776 ft 432 kts 316°
2026-05-04 09:22 -0.45987 102.30014 22258 ft 429 kts 316°
2026-05-04 09:23 -0.43848 102.27939 21659 ft 428 kts 316°
2026-05-04 09:23 -0.41719 102.25873 21054 ft 426 kts 317°
2026-05-04 09:23 -0.39599 102.23815 20453 ft 425 kts 316°
2026-05-04 09:23 -0.38167 102.22426 20047 ft 424 kts 317°
2026-05-04 09:25 -0.23550 102.08245 15838 ft 413 kts 316°
2026-05-04 09:25 -0.21493 102.06252 15238 ft 412 kts 316°
2026-05-04 09:26 -0.19439 102.04266 14635 ft 410 kts 315°
2026-05-04 09:26 -0.17692 102.02578 14118 ft 408 kts 315°
2026-05-04 09:26 -0.15658 102.00613 13518 ft 405 kts 315°
2026-05-04 09:26 -0.13640 101.98664 12967 ft 401 kts 315°
2026-05-04 09:27 -0.11662 101.96752 12707 ft 389 kts 315°
2026-05-04 09:27 -0.09748 101.94898 12428 ft 378 kts 315°
2026-05-04 09:27 -0.07886 101.93095 12161 ft 367 kts 315°
2026-05-04 09:27 -0.06076 101.91341 11875 ft 358 kts 315°
2026-05-04 09:28 -0.04314 101.89630 11585 ft 349 kts 315°
2026-05-04 09:28 -0.02594 101.87958 11284 ft 341 kts 315°
2026-05-04 09:28 -0.00910 101.86325 10984 ft 334 kts 315°
2026-05-04 09:28 0.00741 101.84725 10685 ft 327 kts 315°
2026-05-04 09:29 0.02364 101.83157 10383 ft 321 kts 315°
2026-05-04 09:29 0.03955 101.81621 10088 ft 315 kts 315°
2026-05-04 09:29 0.05515 101.80111 9782 ft 310 kts 315°
2026-05-04 09:29 0.07051 101.78623 9483 ft 305 kts 315°
2026-05-04 09:30 0.08520 101.77119 9183 ft 300 kts 308°
2026-05-04 09:30 0.09588 101.75363 8876 ft 294 kts 293°
2026-05-04 09:30 0.10372 101.73491 8571 ft 289 kts 292°
2026-05-04 09:30 0.11146 101.71655 8282 ft 285 kts 292°
2026-05-04 09:31 0.11911 101.69848 7983 ft 280 kts 292°
2026-05-04 09:31 0.12666 101.68070 7678 ft 276 kts 293°
2026-05-04 09:31 0.13408 101.66322 7370 ft 272 kts 292°
2026-05-04 09:31 0.14143 101.64592 7020 ft 270 kts 292°
2026-05-04 09:32 0.14871 101.62874 6670 ft 268 kts 292°
2026-05-04 09:32 0.15116 101.62295 6549 ft 267 kts 292°
2026-05-04 09:34 0.19214 101.51461 3688 ft 237 kts 272°
2026-05-04 09:34 0.19287 101.49837 3525 ft 231 kts 272°
2026-05-04 09:34 0.19364 101.48235 3400 ft 231 kts 273°
2026-05-04 09:34 0.19440 101.46651 3276 ft 224 kts 272°
2026-05-04 09:35 0.19690 101.45157 3134 ft 215 kts 296°
2026-05-04 09:35 0.20649 101.44083 3019 ft 208 kts 331°
2026-05-04 09:35 0.22027 101.43761 2907 ft 205 kts
2026-05-04 09:35 0.23461 101.43807 2826 ft 206 kts
2026-05-04 09:37 0.33093 101.44081 2024 ft 164 kts
2026-05-04 09:37 0.34206 101.44113 1923 ft 157 kts 360°
2026-05-04 09:38 0.35273 101.44144 1902 ft 151 kts 360°
2026-05-04 09:38 0.36321 101.44173 1776 ft 149 kts 360°
2026-05-04 09:38 0.37350 101.44203 1579 ft 147 kts 359°
2026-05-04 09:38 0.38376 101.44232 1386 ft 147 kts 359°
2026-05-04 09:39 0.39395 101.44261 1194 ft 146 kts 360°
2026-05-04 09:39 0.40413 101.44290 1000 ft 146 kts
2026-05-04 09:39 0.41426 101.44319 811 ft 146 kts 360°
2026-05-04 09:39 0.42436 101.44350 625 ft 145 kts
2026-05-04 09:40 0.43444 101.44382 420 ft 144 kts 360°
2026-05-04 09:40 0.44445 101.44403 231 ft 144 kts
2026-05-04 09:40 0.45410 101.44430 127 ft 123 kts
2026-05-04 09:40 0.45980 101.44447 126 ft 55 kts
2026-05-04 09:41 0.46301 101.44455 128 ft 39 kts
2026-05-04 09:42 0.46516 101.44593 126 ft 8 kts 181°
2026-05-04 09:43 0.46484 101.44601 125 ft 3 kts 128°
2026-05-04 09:43 0.46481 101.44625 124 ft 5 kts 93°
2026-05-04 09:43 0.46481 101.44656 125 ft 4 kts 90°
2026-05-04 09:43 0.46481 101.44679 126 ft 3 kts 90°
2026-05-04 09:44 0.46481 101.44684 127 ft 0 kts 90°